Showing default

COSMOS 2585, 63288

Orbit data source: Space-Track

COSMOS 2585, 63288 is a payload satellite owned by VVKO VKS (CIS) in LEO that was launched on Sun, 16 Mar 2025 UTC via an ANGARA-1.2 launch vehicle from the Plesetsk Missile And Space Complex (PKMTR). Payload-class satellites include a variety of spacecraft equipped with specific instruments for various scientific and technological missions. These include communications satellites like Starlink; space stations such as the ISS; scientific satellites like the Hubble; Earth observation satellites from companies like Planet Labs, Umbra, and HawkEye 360; GPS; miniature CubeSats for education and research; and military/defense satellites.

Loading next visibility...
Identifier
63288, 2025-054A
Orbit
LEO
Country
Flag of CISCIS
Related business
Manufacturer
Resehetnev ISS
Mission
Operational Defense Communications
Bus & Motor
STRELA-3M, Unknown motor
Mass
280 kg wet, 280 kg dry
Launch date (UTC)
2025-03-16 (1 year ago)
Launch vehicle
ANGARA-1.2
Launch site
Plesetsk Missile And Space Complex (PKMTR)
Object type
Payload
Rocket body
Debris
Shape & HBR
Cyl + 1 Ant, 1.6 m
Radar Cross Section
1.583 m², Large (>1 m²)

Expand to show TLE details & history
Last TLE update: 8 hours ago

TLE from 8 hours ago
0 COSMOS 2585
1 63288U 25054A   26127.81006260  .00000039  00000-0  21148-3 0  9995
2 63288  82.4901 103.7743 0025454 120.6708 239.6885 12.42898619 51841
Epoch: 2026-05-07T19:26Z
TLE epoch observation values (Epoch: 2026-05-07T19:26:29.408Z)
Latitude
-0.00004°
Longitude
-53.4991°
Altitude
1,507.192 km
Speed
7.107 km/s
True Right ascension
06h 55m 05s
True Declination
0° 00' 00"
Sunlit
Object was in daylight at epoch
Visualization orbit readout
Latitude
Unknown
Longitude
Unknown
Altitude
Unknown
Speed
Unknown
Apparent Right ascension
Unknown
Apparent Declination
Unknown
Sunlit
N/A
Visualization observer readout
Local Sidereal Time
11:39:39
Azimuth
Unknown
Elevation
Unknown
Doppler factor
Unknown
Orbital elements
Apogee altitude
1,511.723 km
Perigee altitude
1,471.659 km
Semi-major axis
7,869.828 km
Eccentricity
0.00255
Inclination
82.4901°
RAAN
103.7743°
Arg. of periapsis
120.6708°
True anomaly
239.4371°
Mean anomaly
239.6885°
Eccentric anomaly
239.56276°
Mean motion
3.10882 °/min
Orbital period
115.8 mins
BSTAR
0.00021148
Loading maneuver chart data...
Computing Atmospheric mass density...
Loading historical data...
Loading historical data...
Loading historical data...
Loading historical data...
Loading historical data...
Loading historical data...
Loading historical data...
Other satellites on launch #54 in the year 2025 (2025-03-16 UTC)

Documentation

Showing up to 5 results
|